Regional Weather Roundup
Issued by NWS

Home | Current Version | Previous Version | Graphics & Text | Print | Product List | Glossary On
Versions: 1 2 3 4 5 6 7 8 9 10 11 12 13 14 15 16 17 18 19 20 21 22 23 24 25 26 27 28 29 30 31 32 33 34 35 36 37 38 39 40 41 42 43 44 45 46 47 48 49 50
000
ASUS45 KTFX 231819
RWRMT
MONTANA HOURLY WEATHER ROUNDUP
NATIONAL WEATHER SERVICE GREAT FALLS MT
1119 AM MST SUN NOV 23 2014

NOTE: "FAIR" INDICATES FEW OR NO CLOUDS BELOW 12000 FEET WITH NO
SIGNIFICANT WEATHER AND/OR OBSTRUCTIONS TO VISIBILITY.

* THESE STATIONS ARE NOT UNDER NWS QUALITY CONTROL. THEY DO NOT
   REPORT WEATHER SUCH AS PRECIPITATION OR FOG.

MTZ001>007-043-231900-
WEST OF THE DIVIDE
CITY           SKY/WX    TMP DP  RH WIND       PRES   REMARKS
KALISPELL      CLOUDY    37  27  67 S6        30.05F WCI  32
MISSOULA       CLOUDY    37  27  67 CALM      30.13R
BUTTE          CLOUDY    30  18  61 W6        30.05R WCI  24
MULLAN PASS    LGT SNOW  27  25  92 N/A       30.00S VSB 3/4
* ESSEX        N/A       35  20  54 N/A        N/A
* EUREKA APT   CLOUDY    39  23  53 SE5       30.03F WCI  35
* HAMILTON APT PTCLDY    37  25  62 S9        30.12S WCI  30
* LIBBY APT    CLOUDY    36  27  70 CALM      30.04F
* LINCOLN      N/A       32  19  59 SW7G19     N/A   WCI  25
* LOOKOUT PASS N/A       30  28  92 N2G8       N/A
* POLSON       N/A       34  25  70 S2         N/A
* RONAN APT    CLOUDY    36  27  70 N/A        N/A
* SEELEY LAKE  N/A       32  23  69 E3G17      N/A
* THOMP F APT  CLOUDY    30  14  51 N6G20      N/A   WCI  24
* YAAK HILL    N/A       31  28  89 N/A        N/A
$$

MTZ008-052>055-231900-
SOUTHWEST MONTANA
CITY           SKY/WX    TMP DP  RH WIND       PRES   REMARKS
BOZEMAN        PTCLDY    36  19  50 W16       30.03R WCI  26
DILLON         CLOUDY    36  18  48 SW10      30.06R WCI  29
* W YELLOWSTON PTCLDY    26  17  69 W3G8       N/A
* ENNIS APT    PTCLDY    32  14  47 SW6        N/A   WCI  26
* THREE FORKS  SUNNY     39  23  53 SW7        N/A   WCI  34
* BOULDER HILL N/A       31  11  43 NE8G13     N/A   WCI  24
* MONIDA PASS  N/A       25  13  60 NW22G32    N/A   WCI  10
* RAYNOLDS PAS N/A       25 -14  17 NE8        N/A   WCI  16
* WHITEHALL    N/A       34  16  48 SW8G14     N/A   WCI  27
* WISE RIVER   N/A       29  16  58 NW18G26    N/A   WCI  17
$$

MTZ009>010-012-014-046-048-049-054-231900-
EAST SLOPES AND CENTRAL MONTANA
CITY           SKY/WX    TMP DP  RH WIND       PRES   REMARKS
CUT BANK       SUNNY     39  16  39 W28G38    29.86S WCI  27
GREAT FALLS    SUNNY     41  18  39 W26G32    29.90S
HELENA         PTSUNNY   39  18  43 NW17G26   30.00R WCI  30
MALMSTROM AFB  PTCLDY    39  16  39 W22G35    29.93S WCI  29
* CONRAD       SUNNY     39  18  43 SW22       N/A   WCI  29
* DEARBORN     N/A       40  17  39 S11G20     N/A   WCI  33
* EAST GLACIER N/A       31  16  54 W18G35     N/A   WCI  19
* MONARCH      N/A       31  14  49 W19G28     N/A   WCI  19
* PENDROY      N/A       38  18  44 W21G31     N/A   WCI  28
* ROGERS PASS  N/A       29  17  61 E11G26     N/A   WCI  19
* SAINT MARY   N/A       31  20  64 S14G30     N/A   WCI  21
* SWEET GRASS  N/A       37  18  46 W22G27     N/A   WCI  26
* WHITE SULPH  N/A       34  16  48 W11G24     N/A   WCI  26
$$

MTZ011-013-016-021-035-040-045-047-050-051-231900-
NORTH CENTRAL MONTANA
CITY           SKY/WX    TMP DP  RH WIND       PRES   REMARKS
HAVRE          SUNNY     37  25  62 W13       29.88S WCI  29
LEWISTOWN      PTCLDY    36  19  50 W23G36    29.87S WCI  24
* N BAR RANCH  SUNNY     36  19  50 NW21G33   29.84S WCI  25
* CHINOOK      SUNNY     36  23  59 W16G23    29.88R WCI  26
* FORT BENTON  PTCLDY    39  21  48 SW12      29.91F WCI  32
* MALTA APT    SUNNY     34  19  54 W9         N/A   WCI  27
* CHESTER      N/A       33  26  75 N2G11      N/A
* DENTON       N/A       39  21  48 W20G28     N/A   WCI  29
* GEYSER       N/A       37  18  46 W31G40     N/A   WCI  24
* JUDITH GAP   N/A       34  17  50 W26G34     N/A   WCI  21
* LOMA         N/A       37  25  62 SW9G14     N/A   WCI  30
$$

MTZ017>020-022>027-061-062-231900-
NORTHEAST MONTANA
CITY           SKY/WX    TMP DP  RH WIND       PRES   REMARKS
GLASGOW        CLOUDY    27  16  63 NW25G32   29.82R WCI  12
GLENDIVE       CLOUDY    27  19  72 W28G37    29.76F WCI  11
JORDAN         PTCLDY    34  21  59 NW18G30   29.82R WCI  23
SIDNEY         PTCLDY    23  18  81 NW21      29.76R VSB 1 3/4 WCI   8
WOLF POINT     CLOUDY    27  18  69 NW22G29   29.81R WCI  13
* BEAVER HILL  N/A       23  18  81 NW34G41    N/A   WCI   4
* CIRCLE       N/A       27  20  75 NW18G24    N/A   WCI  14
* LINDSAY DVD  N/A       22  18  85 NW27G35    N/A   WCI   5
* NAVAJO       N/A       17  10  74 NW26       N/A   WCI  -2
* PLENTYWOOD A PTCLDY    16   9  74 NW25G37   29.70S WCI  -3
* POPLAR APT   PTCLDY    25  16  69 N/A       29.79R
* SACO         N/A       27  18  69 NW19G25    N/A   WCI  14
* SCOBEY APT   PTCLDY    21  10  62 NW24G33    N/A   WCI   4
$$

MTZ028>042-056>058-231900-
SOUTHCENTRAL AND SOUTHEAST MONTANA
CITY           SKY/WX    TMP DP  RH WIND       PRES   REMARKS
BAKER          CLOUDY    27  19  72 NW24G32   29.73R WCI  12
BILLINGS       SUNNY     41  19  41 NW28G33   29.90F
LIVINGSTON     CLOUDY    36  18  48 W24G30    29.98R WCI  24
MILES CITY     CLOUDY    37  21  52 NW32G39   29.81R WCI  24
* BIG TIMBER A PTCLDY    36  16  44 W29G40    29.93S WCI  23
* FORSYTH APT  CLOUDY    37  25  62 W24G32    29.84S WCI  26
* LAUREL APT   SUNNY     41  18  39 W15G20     N/A
* ALZADA       N/A       36  22  57 W26G33     N/A   WCI  24
* HYSHAM       N/A       36  20  52 NW16G23    N/A   WCI  26
* LAME DEER    N/A       32  20  61 W16G29     N/A   WCI  21
* REED POINT   N/A       39  20  46 W28G37     N/A   WCI  27
* ROSCOE HILL  N/A       34   7  32 W12G27     N/A   WCI  25
$$

REGIONAL REPORTS...DAKOTAS
CITY           SKY/WX    TMP DP  RH WIND       PRES   REMARKS
WILLISTON      LGT SNOW  18   9  68 NW29G37   29.72R WCI  -1
DICKINSON      CLOUDY    25  16  69 NW31G44   29.61R WCI   8
BEACH          LGT SNOW  25  19  78 NW31G41   29.72R WCI   8
CROSBY         LGT SNOW  16  10  77 NW23G33   29.68R VSB 2 1/2 WCI  -2
TIOGA          LGT SNOW  16  14  92 NW29G35   29.65R VSB 1 1/2 WCI  -4
BISMARCK       CLOUDY    27  16  63 NW21G35   29.58R WCI  13
FARGO          CLOUDY    45  36  71 W12       29.44S
BUFFALO SD     PTSUNNY   34  23  64 NW32G45   29.60R WCI  20
RAPID CITY     SUNNY     43  19  38 NW36G55   29.70R
$$

REGIONAL REPORTS...WYOMING/IDAHO/WASHINGTON
CITY           SKY/WX    TMP DP  RH WIND       PRES   REMARKS
SHERIDAN       CLOUDY    37  19  48 NW30G39   29.87R WCI  24
CODY           CLOUDY    32  19  59 W14G25    29.90R WCI  22
YELLOWSTONE LA PTSUNNY   19  14  81 W9        29.98R WCI   8
SALMON         PTSUNNY   36  23  59 N7        30.17R WCI  30
MULLAN PASS    LGT SNOW  27  25  92 N/A       30.00S VSB 3/4
SAND POINT     N/A       32  32 100 SW5       30.09F VSB 2    WCI  27
SPOKANE        CLOUDY    37  34  89 SW18G31   30.06F WCI  27
$$

REGIONAL REPORTS...ALBERTA
CITY           SKY/WX    TMP DP  RH WIND       PRES   REMARKS
CALGARY        PTSUNNY   28  21  75 S9        29.75F WCI  19
LETHBRIDGE     PTCLDY    41  19  41 W28G37    29.82F
MEDICINE HAT   SUNNY     32  23  69 SW8       29.88R WCI  25
EDMONTON       PTCLDY    16  12  84 SE6       29.74F WCI   7
WATERTON GATE  N/A       36  18  48 SW18G32    N/A   WCI  26
CARDSTON       N/A       37  18  46 W20G26     N/A   WCI  27
MILK RIVER     N/A       37  25  62 W14        N/A   WCI  28
$$

REGIONAL REPORTS...SASKATCHEWAN
CITY           SKY/WX    TMP DP  RH WIND       PRES   REMARKS
SWIFT CURRENT  CLOUDY    16  12  84 NW14G20   29.79R WCI   2
MOOSE JAW      SNOW      14  10  84 NW16      29.80R WCI  -2
REGINA         SNOW      12   7  80 NW17G25   29.77R WCI  -5
VAL MARIE      N/A       23  18  81 NW20G25    N/A   WCI   8
ASSINIBOIA     N/A       18  12  77 NW21       N/A   WCI   1
CORONACH       N/A       21  14  74 NW28G36    N/A   WCI   3

$$



USA.gov is the U.S. government's official web portal to all federal, state and local government web resources and services.